QPF
0.00 0.00 0.01 0.01 0.01 0.02 0.02 0.02 0.03 0.05 0.06 0.06 0.05 0.06 0.06 0.05 0.05 0.05 0.04 0.03 0.02 0.02 0.02 0.02 0.03 0.04 0.04 0.04 0.04 0.04 0.05 0.06 0.05 0.04 0.03 0.03 0.03 0.03 0.02 0.02 0.02 0.02 0.02
0.01 0.01 0.01 0.01 0.01 0.02 0.02 0.02 0.03 0.05 0.06 0.06 0.06 0.06 0.06 0.05 0.05 0.05 0.04 0.03 0.02 0.02 0.02 0.03 0.04 0.04 0.05 0.04 0.04 0.04 0.04 0.05 0.06 0.06 0.06 0.07 0.06 0.05 0.04 0.03 0.02 0.01 0.02
0.01 0.01 0.01 0.01 0.01 0.02 0.02 0.02 0.04 0.05 0.05 0.06 0.05 0.05 0.04 0.04 0.03 0.03 0.04 0.03 0.03 0.03 0.03 0.04 0.05 0.07 0.06 0.06 0.05 0.05 0.04 0.04 0.07 0.08 0.07 0.07 0.06 0.05 0.04 0.03 0.03 0.02 0.02
0.01 0.01 0.01 0.01 0.01 0.02 0.03 0.03 0.04 0.04 0.04 0.05 0.04 0.04 0.03 0.02 0.02 0.03 0.03 0.03 0.04 0.03 0.05 0.06 0.05 0.05 0.05 0.06 0.06 0.05 0.05 0.06 0.07 0.07 0.06 0.06 0.05 0.05 0.04 0.03 0.03 0.02 0.02
0.01 0.01 0.02 0.02 0.01 0.01 0.02 0.03 0.03 0.03 0.03 0.03 0.02 0.02 0.01 0.01 0.01 0.02 0.04 0.04 0.04 0.03 0.04 0.03 0.03 0.04 0.05 0.05 0.05 0.05 0.06 0.06 0.07 0.07 0.06 0.06 0.05 0.06 0.05 0.05 0.04 0.04 0.03
0.02 0.03 0.04 0.04 0.03 0.03 0.02 0.02 0.02 0.01 0.01 0.01 0.01 0.01 0.01 0.00 0.01 0.02 0.03 0.03 0.04 0.04 0.04 0.03 0.03 0.03 0.02 0.03 0.03 0.04 0.04 0.05 0.05 0.05 0.05 0.04 0.04 0.05 0.06 0.06 0.06 0.06 0.06
0.05 0.05 0.06 0.06 0.05 0.03 0.01 0.01 0.01 0.02 0.02 0.01 0.01 0.02 0.02 0.02 0.03 0.03 0.04 0.04 0.03 0.03 0.03 0.03 0.02 0.03 0.04 0.04 0.06 0.05 0.05 0.04 0.04 0.04 0.04 0.04 0.04 0.06 0.07 0.06 0.05 0.05 0.05
0.03 0.03 0.03 0.03 0.02 0.01 0.01 0.01 0.02 0.02 0.02 0.02 0.02 0.03 0.03 0.03 0.03 0.04 0.05 0.03 0.03 0.03 0.03 0.02 0.03 0.03 0.04 0.05 0.07 0.07 0.06 0.05 0.04 0.04 0.03 0.04 0.05 0.06 0.07 0.07 0.07 0.07 0.06
0.02 0.02 0.03 0.03 0.03 0.02 0.02 0.02 0.02 0.02 0.02 0.02 0.02 0.03 0.03 0.04 0.05 0.05 0.05 0.03 0.03 0.04 0.04 0.03 0.03 0.03 0.04 0.05 0.05 0.07 0.06 0.06 0.06 0.05 0.05 0.06 0.07 0.08 0.07 0.06 0.07 0.07 0.07
0.03 0.03 0.03 0.04 0.04 0.04 0.03 0.02 0.02 0.02 0.03 0.03 0.03 0.03 0.03 0.04 0.04 0.04 0.04 0.03 0.03 0.03 0.04 0.05 0.06 0.06 0.06 0.05 0.04 0.05 0.05 0.06 0.06 0.06 0.06 0.06 0.06 0.08 0.09 0.09 0.09 0.09 0.09
0.05 0.05 0.05 0.06 0.06 0.04 0.02 0.02 0.01 0.02 0.02 0.02 0.02 0.02 0.03 0.03 0.03 0.04 0.04 0.03 0.03 0.03 0.04 0.05 0.07 0.09 0.09 0.08 0.06 0.05 0.04 0.04 0.04 0.03 0.03 0.03 0.02 0.03 0.04 0.05 0.06 0.06 0.06
0.09 0.09 0.08 0.07 0.06 0.05 0.03 0.02 0.02 0.02 0.02 0.01 0.01 0.02 0.03 0.03 0.03 0.03 0.03 0.03 0.03 0.03 0.04 0.05 0.04 0.04 0.05 0.06 0.05 0.04 0.03 0.02 0.02 0.02 0.01 0.01 0.02 0.02 0.03 0.03 0.03 0.04 0.04
0.07 0.07 0.07 0.06 0.04 0.04 0.03 0.03 0.03 0.02 0.02 0.02 0.02 0.02 0.03 0.03 0.03 0.02 0.02 0.03 0.03 0.03 0.03 0.03 0.04 0.05 0.04 0.05 0.06 0.05 0.03 0.02 0.02 0.02 0.02 0.02 0.03 0.03 0.03 0.03 0.03 0.04 0.04
0.05 0.05 0.05 0.05 0.06 0.05 0.05 0.05 0.04 0.03 0.02 0.02 0.01 0.01 0.01 0.01 0.01 0.01 0.02 0.02 0.02 0.02 0.02 0.02 0.04 0.06 0.07 0.07 0.07 0.06 0.05 0.04 0.03 0.04 0.03 0.03 0.03 0.02 0.01 0.01 0.01 0.01 0.01
0.06 0.05 0.06 0.07 0.09 0.10 0.08 0.05 0.03 0.02 0.02 0.01 0.01 0.02 0.02 0.01 0.02 0.02 0.02 0.02 0.03 0.03 0.02 0.02 0.01 0.02 0.03 0.04 0.04 0.04 0.04 0.04 0.03 0.03 0.03 0.02 0.01 0.01 0.01 0.01 0.01 0.01 0.01
0.10 0.12 0.12 0.12 0.13 0.13 0.09 0.05 0.03 0.02 0.02 0.02 0.03 0.03 0.03 0.03 0.04 0.03 0.03 0.03 0.04 0.03 0.02 0.01 0.01 0.01 0.02 0.02 0.02 0.02 0.02 0.01 0.01 0.01 0.01 0.00 0.00 0.00 0.00 0.01 0.01 0.01 0.01
0.13 0.15 0.18 0.14 0.10 0.07 0.05 0.04 0.03 0.02 0.02 0.02 0.02 0.02 0.02 0.02 0.03 0.03 0.03 0.03 0.03 0.02 0.02 0.01 0.01 0.01 0.01 0.01 0.01 0.01 0.01 0.00 0.00 0.00 0.00 0.00 0.00 0.00 0.00 0.00 0.00 0.00 0.01
0.13 0.11 0.11 0.09 0.06 0.05 0.03 0.03 0.03 0.02 0.02 0.02 0.01 0.01 0.01 0.01 0.01 0.02 0.01 0.01 0.01 0.01 0.01 0.01 0.00 0.00 0.01 0.01 0.01 0.01 0.01 0.00 0.00 0.00 0.00 0.00 0.00 0.00 0.00 0.00 0.00 0.01 0.01
0.07 0.06 0.06 0.06 0.06 0.04 0.03 0.02 0.02 0.01 0.01 0.02 0.02 0.02 0.03 0.02 0.01 0.01 0.01 0.01 0.01 0.01 0.01 0.01 0.01 0.01 0.01 0.02 0.02 0.01 0.01 0.01 0.01 0.01 0.01 0.01 0.00 0.00 0.01 0.01 0.01 0.01 0.01
0.05 0.05 0.05 0.04 0.03 0.03 0.02 0.02 0.02 0.02 0.01 0.02 0.02 0.02 0.02 0.03 0.02 0.02 0.01 0.01 0.01 0.01 0.01 0.01 0.01 0.01 0.01 0.01 0.01 0.01 0.01 0.01 0.01 0.01 0.01 0.01 0.01 0.01 0.01 0.01 0.01 0.02 0.02
0.05 0.05 0.05 0.04 0.03 0.02 0.02 0.01 0.01 0.01 0.01 0.01 0.02 0.02 0.03 0.03 0.03 0.02 0.02 0.02 0.01 0.01 0.02 0.02 0.02 0.02 0.01 0.01 0.01 0.01 0.01 0.01 0.01 0.01 0.01 0.01 0.01 0.01 0.01 0.01 0.02 0.02 0.03
0.05 0.04 0.04 0.03 0.02 0.02 0.02 0.02 0.02 0.02 0.02 0.03 0.03 0.04 0.04 0.04 0.04 0.03 0.03 0.03 0.02 0.02 0.03 0.02 0.03 0.03 0.03 0.02 0.02 0.02 0.01 0.01 0.01 0.01 0.01 0.01 0.01 0.01 0.02 0.02 0.01 0.02 0.02
0.03 0.03 0.02 0.02 0.01 0.01 0.01 0.01 0.02 0.02 0.03 0.04 0.05 0.06 0.08 0.08 0.07 0.06 0.05 0.05 0.04 0.03 0.04 0.04 0.03 0.03 0.03 0.03 0.03 0.03 0.03 0.02 0.02 0.02 0.02 0.02 0.02 0.02 0.02 0.02 0.02 0.02 0.03
0.02 0.02 0.02 0.02 0.02 0.01 0.01 0.01 0.02 0.03 0.05 0.05 0.07 0.07 0.08 0.08 0.07 0.06 0.04 0.03 0.03 0.03 0.03 0.03 0.03 0.03 0.03 0.03 0.03 0.03 0.03 0.03 0.03 0.03 0.03 0.03 0.03 0.03 0.03 0.03 0.03 0.03 0.03
0.03 0.02 0.02 0.02 0.02 0.02 0.02 0.03 0.05 0.07 0.07 0.07 0.07 0.05 0.05 0.06 0.05 0.04 0.02 0.02 0.02 0.01 0.01 0.01 0.01 0.01 0.02 0.02 0.02 0.02 0.03 0.03 0.03 0.03 0.03 0.04 0.04 0.03 0.03 0.03 0.03 0.03 0.03
0.02 0.02 0.02 0.02 0.02 0.02 0.02 0.04 0.04 0.05 0.05 0.04 0.04 0.04 0.04 0.04 0.03 0.02 0.02 0.01 0.02 0.02 0.01 0.01 0.01 0.02 0.02 0.02 0.02 0.03 0.03 0.04 0.04 0.05 0.05 0.05 0.05 0.04 0.04 0.04 0.03 0.03 0.03
MSLP
1013.52 1013.94 1014.31 1014.59 1014.74 1014.72 1014.56 1014.28 1013.92 1013.56 1013.24 1013.02 1012.94 1013.01 1013.21 1013.53 1013.92 1014.35 1014.77 1015.17 1015.52 1015.82 1016.07 1016.27 1016.43 1016.54 1016.62 1016.66 1016.65 1016.58 1016.47 1016.29 1016.07 1015.82 1015.55 1015.28 1015.02 1014.80 1014.62 1014.48 1014.39 1014.34 1014.31
1013.32 1013.80 1014.23 1014.56 1014.75 1014.77 1014.64 1014.37 1014.03 1013.66 1013.34 1013.11 1013.02 1013.07 1013.27 1013.58 1013.97 1014.40 1014.82 1015.21 1015.55 1015.82 1016.04 1016.21 1016.34 1016.43 1016.49 1016.52 1016.51 1016.45 1016.35 1016.19 1015.99 1015.75 1015.47 1015.18 1014.90 1014.64 1014.41 1014.23 1014.09 1013.99 1013.93
1013.19 1013.71 1014.18 1014.55 1014.79 1014.85 1014.76 1014.53 1014.22 1013.88 1013.58 1013.37 1013.29 1013.35 1013.54 1013.84 1014.21 1014.61 1015.00 1015.35 1015.64 1015.87 1016.03 1016.14 1016.22 1016.27 1016.31 1016.32 1016.32 1016.28 1016.21 1016.09 1015.93 1015.71 1015.46 1015.18 1014.89 1014.61 1014.35 1014.13 1013.94 1013.80 1013.69
1013.08 1013.62 1014.11 1014.51 1014.77 1014.88 1014.83 1014.66 1014.40 1014.12 1013.87 1013.70 1013.64 1013.72 1013.91 1014.19 1014.54 1014.89 1015.22 1015.50 1015.72 1015.86 1015.95 1015.99 1016.01 1016.01 1016.02 1016.03 1016.04 1016.04 1016.01 1015.95 1015.84 1015.68 1015.48 1015.23 1014.97 1014.69 1014.42 1014.17 1013.94 1013.74 1013.57
1012.97 1013.49 1013.97 1014.37 1014.65 1014.79 1014.79 1014.67 1014.49 1014.28 1014.09 1013.98 1013.97 1014.07 1014.26 1014.52 1014.82 1015.11 1015.36 1015.56 1015.68 1015.73 1015.73 1015.70 1015.65 1015.61 1015.60 1015.60 1015.63 1015.67 1015.70 1015.70 1015.66 1015.58 1015.44 1015.26 1015.03 1014.78 1014.52 1014.26 1014.00 1013.76 1013.54
1012.83 1013.31 1013.75 1014.13 1014.40 1014.55 1014.59 1014.54 1014.42 1014.29 1014.18 1014.13 1014.16 1014.28 1014.47 1014.70 1014.95 1015.17 1015.34 1015.43 1015.46 1015.42 1015.34 1015.23 1015.13 1015.06 1015.03 1015.04 1015.09 1015.16 1015.24 1015.31 1015.34 1015.33 1015.27 1015.15 1014.98 1014.78 1014.55 1014.30 1014.04 1013.78 1013.53
1012.70 1013.10 1013.48 1013.80 1014.05 1014.20 1014.27 1014.25 1014.20 1014.14 1014.10 1014.11 1014.19 1014.32 1014.50 1014.69 1014.88 1015.02 1015.11 1015.12 1015.06 1014.94 1014.79 1014.63 1014.49 1014.39 1014.35 1014.37 1014.44 1014.54 1014.66 1014.77 1014.85 1014.90 1014.90 1014.84 1014.74 1014.59 1014.41 1014.20 1013.97 1013.72 1013.47
1012.63 1012.93 1013.22 1013.47 1013.67 1013.80 1013.87 1013.89 1013.88 1013.87 1013.89 1013.94 1014.04 1014.18 1014.34 1014.50 1014.63 1014.71 1014.71 1014.65 1014.52 1014.34 1014.15 1013.96 1013.80 1013.69 1013.65 1013.67 1013.74 1013.86 1013.98 1014.11 1014.22 1014.30 1014.33 1014.32 1014.27 1014.18 1014.06 1013.91 1013.73 1013.53 1013.32
1012.65 1012.85 1013.05 1013.22 1013.35 1013.45 1013.50 1013.53 1013.55 1013.57 1013.63 1013.71 1013.82 1013.96 1014.09 1014.21 1014.29 1014.30 1014.25 1014.13 1013.96 1013.75 1013.54 1013.34 1013.17 1013.07 1013.02 1013.03 1013.10 1013.19 1013.31 1013.42 1013.51 1013.58 1013.62 1013.63 1013.61 1013.57 1013.51 1013.43 1013.34 1013.22 1013.07
1012.80 1012.91 1013.01 1013.10 1013.17 1013.21 1013.24 1013.27 1013.29 1013.34 1013.41 1013.51 1013.63 1013.75 1013.86 1013.94 1013.97 1013.94 1013.84 1013.69 1013.49 1013.27 1013.05 1012.86 1012.70 1012.60 1012.55 1012.55 1012.58 1012.64 1012.71 1012.77 1012.81 1012.84 1012.86 1012.86 1012.86 1012.86 1012.85 1012.85 1012.84 1012.81 1012.76
1013.08 1013.10 1013.12 1013.13 1013.13 1013.13 1013.14 1013.15 1013.18 1013.24 1013.32 1013.43 1013.55 1013.66 1013.75 1013.79 1013.79 1013.72 1013.60 1013.42 1013.21 1012.99 1012.78 1012.59 1012.45 1012.34 1012.28 1012.25 1012.25 1012.25 1012.24 1012.23 1012.21 1012.17 1012.14 1012.12 1012.11 1012.13 1012.17 1012.23 1012.30 1012.37 1012.42
1013.45 1013.39 1013.34 1013.29 1013.24 1013.20 1013.18 1013.19 1013.23 1013.30 1013.40 1013.52 1013.64 1013.75 1013.82 1013.84 1013.81 1013.72 1013.57 1013.38 1013.16 1012.94 1012.73 1012.55 1012.41 1012.29 1012.21 1012.15 1012.09 1012.03 1011.95 1011.86 1011.75 1011.65 1011.55 1011.49 1011.46 1011.49 1011.55 1011.67 1011.80 1011.95 1012.09
1013.82 1013.72 1013.61 1013.51 1013.43 1013.36 1013.34 1013.35 1013.41 1013.50 1013.63 1013.77 1013.91 1014.02 1014.09 1014.10 1014.05 1013.93 1013.77 1013.56 1013.33 1013.10 1012.88 1012.70 1012.54 1012.41 1012.30 1012.19 1012.09 1011.96 1011.81 1011.65 1011.47 1011.29 1011.14 1011.03 1010.98 1010.99 1011.07 1011.20 1011.37 1011.57 1011.77
1014.14 1014.00 1013.85 1013.72 1013.62 1013.55 1013.53 1013.56 1013.65 1013.79 1013.95 1014.13 1014.30 1014.43 1014.51 1014.52 1014.46 1014.32 1014.13 1013.90 1013.65 1013.39 1013.16 1012.95 1012.76 1012.61 1012.47 1012.32 1012.17 1011.99 1011.79 1011.57 1011.34 1011.11 1010.91 1010.76 1010.68 1010.67 1010.73 1010.86 1011.03 1011.24 1011.45
1014.33 1014.17 1014.01 1013.86 1013.75 1013.69 1013.70 1013.77 1013.91 1014.09 1014.31 1014.54 1014.75 1014.91 1015.01 1015.03 1014.95 1014.80 1014.59 1014.32 1014.03 1013.75 1013.47 1013.23 1013.01 1012.82 1012.65 1012.48 1012.29 1012.09 1011.86 1011.60 1011.34 1011.08 1010.85 1010.67 1010.55 1010.50 1010.53 1010.63 1010.78 1010.96 1011.15
1014.39 1014.21 1014.04 1013.89 1013.79 1013.75 1013.80 1013.91 1014.11 1014.36 1014.64 1014.93 1015.18 1015.38 1015.50 1015.53 1015.45 1015.28 1015.04 1014.74 1014.41 1014.08 1013.76 1013.48 1013.23 1013.01 1012.81 1012.62 1012.43 1012.21 1011.97 1011.71 1011.44 1011.16 1010.91 1010.71 1010.55 1010.47 1010.45 1010.50 1010.59 1010.71 1010.85
1014.32 1014.14 1013.97 1013.83 1013.75 1013.75 1013.83 1014.00 1014.25 1014.56 1014.90 1015.24 1015.54 1015.78 1015.92 1015.95 1015.87 1015.68 1015.41 1015.08 1014.71 1014.35 1013.99 1013.68 1013.40 1013.17 1012.96 1012.77 1012.57 1012.37 1012.14 1011.89 1011.62 1011.35 1011.09 1010.85 1010.67 1010.54 1010.46 1010.44 1010.47 1010.52 1010.59
1014.16 1013.99 1013.84 1013.72 1013.67 1013.70 1013.82 1014.04 1014.34 1014.70 1015.09 1015.47 1015.80 1016.06 1016.21 1016.24 1016.16 1015.96 1015.67 1015.31 1014.93 1014.54 1014.17 1013.84 1013.56 1013.32 1013.12 1012.94 1012.76 1012.58 1012.37 1012.14 1011.88 1011.61 1011.34 1011.09 1010.86 1010.68 1010.55 1010.46 1010.41 1010.39 1010.40
1013.97 1013.82 1013.70 1013.61 1013.60 1013.67 1013.83 1014.08 1014.41 1014.80 1015.21 1015.61 1015.96 1016.22 1016.37 1016.40 1016.31 1016.10 1015.80 1015.44 1015.05 1014.66 1014.30 1013.98 1013.72 1013.50 1013.33 1013.18 1013.03 1012.87 1012.69 1012.47 1012.22 1011.95 1011.66 1011.38 1011.11 1010.88 1010.69 1010.54 1010.43 1010.36 1010.31
1013.79 1013.68 1013.60 1013.56 1013.58 1013.69 1013.88 1014.15 1014.50 1014.89 1015.30 1015.69 1016.02 1016.26 1016.40 1016.41 1016.31 1016.10 1015.81 1015.46 1015.09 1014.73 1014.41 1014.13 1013.90 1013.73 1013.60 1013.49 1013.38 1013.25 1013.08 1012.87 1012.63 1012.34 1012.03 1011.71 1011.40 1011.12 1010.88 1010.68 1010.53 1010.42 1010.34
1013.66 1013.61 1013.58 1013.58 1013.65 1013.78 1013.99 1014.27 1014.61 1014.98 1015.36 1015.71 1016.00 1016.20 1016.31 1016.30 1016.18 1015.97 1015.69 1015.38 1015.05 1014.74 1014.47 1014.26 1014.10 1013.99 1013.92 1013.85 1013.78 1013.67 1013.52 1013.31 1013.05 1012.74 1012.40 1012.04 1011.69 1011.37 1011.09 1010.86 1010.68 1010.55 1010.47
1013.60 1013.60 1013.63 1013.68 1013.78 1013.94 1014.15 1014.42 1014.73 1015.06 1015.38 1015.67 1015.90 1016.04 1016.10 1016.05 1015.92 1015.71 1015.46 1015.19 1014.91 1014.68 1014.49 1014.35 1014.27 1014.23 1014.22 1014.20 1014.17 1014.08 1013.93 1013.72 1013.44 1013.10 1012.72 1012.33 1011.94 1011.58 1011.27 1011.01 1010.82 1010.69 1010.62
1013.60 1013.66 1013.73 1013.83 1013.96 1014.12 1014.33 1014.57 1014.84 1015.10 1015.35 1015.56 1015.71 1015.78 1015.78 1015.69 1015.54 1015.34 1015.11 1014.88 1014.68 1014.51 1014.41 1014.36 1014.36 1014.39 1014.44 1014.47 1014.46 1014.39 1014.25 1014.02 1013.71 1013.35 1012.94 1012.50 1012.08 1011.69 1011.36 1011.09 1010.90 1010.77 1010.72
1013.66 1013.75 1013.86 1013.98 1014.12 1014.29 1014.48 1014.68 1014.88 1015.08 1015.25 1015.37 1015.43 1015.43 1015.37 1015.24 1015.07 1014.87 1014.67 1014.48 1014.34 1014.25 1014.22 1014.24 1014.32 1014.41 1014.51 1014.58 1014.60 1014.54 1014.39 1014.15 1013.83 1013.44 1013.00 1012.54 1012.09 1011.68 1011.32 1011.04 1010.84 1010.72 1010.68
1013.74 1013.85 1013.96 1014.09 1014.23 1014.38 1014.53 1014.69 1014.83 1014.96 1015.05 1015.09 1015.08 1015.01 1014.89 1014.73 1014.54 1014.35 1014.17 1014.02 1013.93 1013.90 1013.93 1014.02 1014.15 1014.29 1014.43 1014.53 1014.56 1014.51 1014.36 1014.11 1013.78 1013.37 1012.91 1012.43 1011.96 1011.53 1011.16 1010.86 1010.64 1010.51 1010.45
1013.80 1013.89 1014.00 1014.11 1014.23 1014.35 1014.47 1014.57 1014.66 1014.72 1014.75 1014.72 1014.65 1014.53 1014.38 1014.19 1014.00 1013.81 1013.66 1013.55 1013.50 1013.51 1013.59 1013.72 1013.89 1014.07 1014.23 1014.34 1014.38 1014.33 1014.19 1013.94 1013.59 1013.18 1012.71 1012.22 1011.73 1011.28 1010.89 1010.57 1010.32 1010.15 1010.06
Thickness
5788 5784 5779 5775 5772 5769 5765 5762 5759 5757 5754 5751 5749 5746 5744 5742 5740 5738 5736 5734 5732 5731 5729 5728 5726 5725 5725 5726 5724 5722 5720 5718 5713 5712 5711 5709 5705 5703 5700 5698 5697 5695 5693
5787 5783 5779 5775 5772 5768 5765 5761 5758 5755 5753 5750 5747 5744 5742 5740 5738 5735 5733 5732 5729 5727 5726 5725 5723 5723 5720 5720 5719 5718 5716 5715 5711 5706 5704 5702 5699 5697 5694 5693 5692 5690 5688
5787 5782 5778 5774 5771 5767 5764 5761 5757 5754 5750 5748 5745 5742 5739 5737 5735 5732 5730 5728 5727 5725 5723 5721 5719 5718 5715 5716 5714 5713 5712 5711 5708 5703 5700 5697 5694 5691 5688 5687 5685 5683 5681
5785 5780 5776 5772 5769 5766 5763 5760 5756 5752 5748 5745 5742 5739 5736 5734 5732 5729 5726 5724 5723 5721 5719 5717 5715 5713 5711 5709 5708 5706 5705 5703 5701 5698 5695 5692 5688 5685 5682 5680 5678 5677 5675
5782 5778 5774 5771 5767 5763 5759 5755 5752 5749 5746 5742 5738 5735 5733 5731 5728 5725 5722 5720 5718 5717 5715 5712 5710 5707 5704 5702 5702 5700 5698 5697 5696 5693 5689 5687 5683 5679 5677 5676 5673 5670 5668
5778 5774 5771 5767 5763 5758 5754 5750 5747 5744 5740 5737 5734 5732 5729 5727 5721 5718 5716 5715 5713 5711 5709 5707 5705 5701 5698 5694 5692 5691 5690 5689 5688 5687 5685 5681 5677 5675 5672 5670 5667 5664 5661
5773 5770 5767 5762 5758 5754 5750 5745 5741 5738 5735 5731 5729 5727 5723 5719 5714 5711 5709 5710 5708 5705 5703 5701 5700 5698 5693 5691 5687 5684 5683 5680 5679 5679 5678 5675 5672 5669 5665 5663 5660 5658 5656
5769 5766 5762 5758 5754 5749 5745 5740 5736 5733 5730 5726 5723 5721 5717 5713 5708 5706 5703 5704 5703 5701 5698 5695 5693 5690 5688 5684 5682 5680 5678 5675 5672 5672 5670 5667 5665 5662 5658 5656 5653 5650 5647
5764 5761 5757 5754 5748 5744 5739 5734 5732 5728 5725 5722 5719 5716 5712 5707 5702 5700 5697 5699 5697 5695 5693 5689 5687 5684 5678 5675 5675 5673 5670 5668 5664 5661 5659 5657 5655 5652 5649 5648 5645 5643 5640
5759 5756 5752 5748 5744 5739 5735 5731 5727 5724 5721 5718 5714 5711 5707 5703 5697 5694 5692 5695 5692 5689 5686 5682 5676 5674 5670 5667 5668 5666 5662 5660 5658 5656 5652 5649 5647 5644 5640 5639 5638 5635 5633
5755 5751 5747 5743 5739 5736 5731 5726 5722 5718 5715 5711 5707 5704 5701 5697 5692 5689 5686 5688 5687 5684 5681 5678 5673 5666 5662 5659 5658 5657 5654 5652 5651 5649 5647 5644 5640 5637 5634 5631 5629 5628 5626
5748 5744 5740 5737 5735 5731 5725 5720 5715 5711 5707 5703 5699 5697 5695 5691 5686 5682 5678 5677 5676 5676 5674 5672 5665 5659 5655 5651 5650 5647 5645 5644 5645 5642 5640 5637 5634 5630 5627 5624 5620 5618 5616
5738 5735 5732 5730 5726 5723 5719 5714 5709 5706 5704 5701 5696 5692 5690 5687 5682 5675 5671 5668 5666 5666 5664 5659 5654 5650 5647 5645 5641 5639 5638 5639 5638 5636 5633 5630 5628 5624 5621 5616 5613 5610 5608
5729 5727 5723 5721 5718 5714 5712 5709 5705 5702 5699 5696 5691 5687 5685 5682 5678 5673 5669 5663 5658 5657 5655 5650 5646 5643 5641 5638 5636 5634 5634 5633 5631 5629 5626 5623 5620 5617 5614 5611 5607 5605 5602
5720 5718 5715 5714 5711 5705 5701 5697 5695 5693 5691 5687 5686 5682 5678 5674 5668 5662 5661 5659 5656 5653 5649 5646 5644 5641 5638 5636 5633 5630 5627 5625 5622 5620 5618 5615 5612 5609 5607 5604 5600 5598 5595
5712 5709 5707 5705 5701 5698 5692 5686 5680 5679 5675 5673 5670 5668 5666 5661 5655 5651 5647 5644 5641 5638 5639 5639 5637 5635 5632 5630 5627 5623 5620 5617 5614 5611 5609 5607 5604 5602 5599 5596 5593 5591 5588
5703 5700 5697 5694 5692 5689 5686 5683 5677 5669 5663 5661 5658 5655 5652 5648 5644 5640 5637 5633 5631 5628 5630 5631 5629 5627 5624 5622 5619 5616 5612 5609 5606 5603 5601 5599 5596 5593 5591 5588 5585 5582 5580
5693 5690 5686 5684 5682 5680 5678 5675 5672 5668 5662 5656 5649 5643 5640 5637 5633 5630 5627 5624 5625 5622 5624 5623 5620 5617 5615 5612 5609 5607 5604 5601 5598 5595 5592 5590 5588 5585 5582 5580 5577 5573 5570
5681 5679 5677 5675 5673 5671 5669 5666 5662 5658 5655 5650 5645 5637 5630 5627 5623 5619 5617 5619 5621 5618 5615 5613 5610 5607 5605 5602 5599 5596 5593 5591 5587 5584 5583 5580 5578 5575 5573 5571 5568 5564 5561
5669 5666 5665 5665 5663 5660 5658 5656 5653 5649 5645 5641 5637 5632 5625 5621 5619 5614 5610 5610 5610 5608 5605 5602 5599 5596 5593 5591 5588 5585 5583 5581 5577 5575 5572 5570 5567 5565 5563 5561 5559 5557 5555
5659 5657 5653 5654 5653 5651 5648 5645 5642 5638 5635 5632 5628 5623 5615 5615 5612 5608 5605 5603 5600 5598 5595 5592 5588 5585 5582 5579 5577 5574 5572 5571 5567 5565 5562 5559 5556 5554 5553 5551 5550 5548 5547
5648 5647 5647 5645 5642 5639 5637 5635 5632 5628 5626 5622 5618 5613 5604 5605 5603 5599 5596 5592 5590 5586 5584 5581 5578 5575 5571 5569 5566 5563 5562 5560 5557 5553 5551 5549 5546 5544 5543 5542 5540 5538 5536
5637 5637 5635 5634 5632 5626 5626 5624 5621 5618 5615 5612 5608 5603 5598 5595 5592 5588 5584 5581 5578 5575 5573 5570 5567 5565 5562 5558 5555 5552 5551 5549 5546 5543 5540 5539 5537 5535 5533 5531 5530 5528 5527
5628 5627 5624 5622 5620 5618 5616 5613 5611 5609 5605 5602 5598 5593 5589 5585 5582 5578 5574 5571 5568 5565 5562 5559 5557 5554 5550 5547 5544 5541 5537 5535 5533 5532 5530 5528 5526 5525 5523 5521 5520 5518 5517
5618 5616 5614 5612 5610 5608 5605 5603 5601 5598 5594 5591 5587 5583 5579 5575 5571 5568 5565 5561 5558 5556 5552 5549 5546 5543 5540 5536 5533 5529 5525 5521 5519 5518 5518 5518 5516 5514 5512 5511 5510 5508 5507
5607 5605 5603 5601 5598 5596 5594 5592 5588 5585 5582 5578 5575 5572 5568 5565 5562 5559 5556 5553 5550 5547 5543 5540 5537 5534 5530 5526 5522 5517 5514 5511 5509 5507 5506 5507 5507 5505 5502 5501 5500 5499 5498